Regional Weather Roundup
Issued by NWS

Home | Current Version | Previous Version | Text Only | Print | Product List | Glossary On
Versions: 1 2 3 4 5 6 7 8 9 10 11 12 13 14 15 16 17 18 19 20 21 22 23 24 25 26 27 28 29 30 31 32 33 34 35 36 37 38 39 40 41 42 43 44 45 46 47 48 49 50
000
ASUS42 KFFC 051803
RWRGA
WEATHER ROUNDUP FOR GEORGIA
NATIONAL WEATHER SERVICE PEACHTREE CITY GA
100 PM EST THU MAR 05 2015

NOTE: "FAIR" INDICATES FEW OR NO CLOUDS BELOW 12,000 FEET WITH NO
SIGNIFICANT WEATHER AND/OR OBSTRUCTIONS TO VISIBILITY.

* = USE WITH CAUTION. THE STATIONS MARKED WITH AN ASTERISK MAY NOT
REPORT WEATHER SUCH AS PRECIPITATION, FOG, OR THUNDER AND ARE NOT
QUALITY CONTROLLED BY NWS.

THE REMARK "TC" DENOTES TEMPERATURE READING IN DEGREES CELSIUS.

GAZ001>058-051900-
NORTH GEORGIA

CITY           SKY/WX    TMP DP  RH WIND       PRES   REMARKS
ATLANTA        CLOUDY    43  40  89 NW8       30.06F
6HR MIN TEMP:  42; 6HR MAX TEMP:  63; 6HR PCP:  0.06;

ATHENS         CLOUDY    51  49  92 W9        30.01S
6HR MIN TEMP:  51; 6HR MAX TEMP:  68; 6HR PCP:  0.14;

CHAMBLEE       LGT RAIN  41  39  93 W7        30.05F
6HR MIN TEMP:  40; 6HR MAX TEMP:  53; 6HR PCP:  0.12;

PEACHTREE CITY CLOUDY    43  40  89 W5        30.06F
6HR MIN TEMP:  43; 6HR MAX TEMP:  69; 6HR PCP:  0.08;

ROME           LGT RAIN  40  38  93 N9        30.11R WCI  34
6HR MIN TEMP:  39; 6HR MAX TEMP:  40; 6HR PCP:  0.28;

WEST ATLANTA   CLOUDY    42  38  85 NW6       30.07F
6HR MIN TEMP:  41; 6HR MAX TEMP:  51; 6HR PCP:  0.15;

GAINESVILLE    LGT RAIN  44  42  93 W12       30.01F
6HR MIN TEMP:  43; 6HR MAX TEMP:  59; 6HR PCP:  0.02;

CARTERSVILLE   CLOUDY    41  37  86 NW6       30.08F
6HR MIN TEMP:  39; 6HR MAX TEMP:  42; 6HR PCP:  0.11;



CITY           SKY/WX    TMP DP  RH WIND       PRES   REMARKS
DALTON*        LGT RAIN  36  36 100 N14G25    30.12R WCI  27
LAWRENCEVILLE* PTSUNNY   43  36  75 W9        30.01F FOG
MARIETTA       CLOUDY    41  40  97 W6        30.05F
$$

GAZ059>098-102>109-051900-
CENTRAL GEORGIA

CITY           SKY/WX    TMP DP  RH WIND       PRES   REMARKS
AUGUSTA-BUSH   PTSUNNY   78  61  55 SW23G33   29.93F
6HR MIN TEMP:  68; 6HR MAX TEMP:  79;

AUGUSTA-DANIEL CLOUDY    79  62  56 SW26G39   29.93F
6HR MIN TEMP:  69; 6HR MAX TEMP:  79;

COLUMBUS       CLOUDY    52  46  82 N7        30.06F
6HR MIN TEMP:  52; 6HR MAX TEMP:  71; 6HR PCP:  0.08;

MACON          LGT RAIN  54  52  94 NW14G25   30.03R FOG
6HR MIN TEMP:  54; 6HR MAX TEMP:  77; 6HR PCP:  0.17;

ROBINS AFB     HVY RAIN  58  56  91 NW18G28   30.03R FOG


CITY           SKY/WX    TMP DP  RH WIND       PRES   REMARKS
LAGRANGE*      CLOUDY    49  47  93 N7        30.07F
SYLVANIA*      PTSUNNY   79  65  62 SW14G24   29.99F
MILLEDGEVILLE* LGT RAIN  54  52  94 W12G20    30.03R
$$

GAZ099>101-110>166-051900-
SOUTH GEORGIA

CITY           SKY/WX    TMP DP  RH WIND       PRES   REMARKS
SAVANNAH       PTSUNNY   81  61  50 SW20G31   29.99F
6HR MIN TEMP:  65; 6HR MAX TEMP:  83;

VALDOSTA       FAIR      78  66  66 VRB7      30.05F
6HR MIN TEMP:  68; 6HR MAX TEMP:  78;

ALMA           PTSUNNY   78  62  57 SW15G21   30.03F
6HR MIN TEMP:  66; 6HR MAX TEMP:  80;

ST SIMONS      FAIR      81  62  52 SW16      30.04F
6HR MIN TEMP:  60; 6HR MAX TEMP:  81;

FT STEWART     PTSUNNY   81  64  55 SW16G25   29.99F
ALBANY         CLOUDY    78  66  66 SW10      30.02F
HUNTER AFB     FAIR      82  65  55 SW16G28   29.98F
MOODY AFB      FAIR      80  65  59 SW15G25   30.04F
BRUNSWICK      FAIR      82  59  44 SW18G26   30.04F


CITY           SKY/WX    TMP DP  RH WIND       PRES   REMARKS
BAINBRIDGE*    PTSUNNY   82  68  61 SW10G24   30.01F
MOULTRIE*      PTSUNNY   79  66  65 S8G21     30.04F
VIDALIA*       PTSUNNY   79  63  57 SW25G32   30.01F
WAYCROSS*      PTSUNNY   84  67  55 SW16G28   30.04F
DOUGLAS*       FAIR      81  63  54 SW16G26   30.04F
$$


USA.gov is the U.S. government's official web portal to all federal, state and local government web resources and services.